Location: Gensac
(43.2177°N, 1.1313°E)
Time: 11:10:41
(UTC+00:00)

Meteor 2-6 Rocket - Pass Details

Date: 08 December 2025
Orbit: 805 x 913 km, 81.3° (Epoch: 22 January)

Event Time Altitude Azimuth Distance (km) Brightness Sun altitude
Rises 06:37:52 0° 346° (NNW) 3,547 7.1 -6.8°
Reaches altitude 10° 06:40:21 10° 343° (NNW) 2,607 6.4 -6.4°
Maximum altitude 06:46:13 61° 265° (W) 1,028 4.5 -5.4°
Drops below altitude 10° 06:52:02 10° 186° (S) 2,583 7.0 -4.5°
Sets 06:54:30 0° 183° (S) 3,511 7.8 -4.1°
